When you browse on this site, cookies collect data to enhance your experience and personalize the content and advertising you see.
Visit our Privacy Policy to learn more. By continuing to use the site, you agree to this use of cookies and data.
  • In Switzerland
  • List of Countries
  • For 7 days
  • Water Temperature
  • Weather Map
  • Weather Widgets
  • user-avatar
    Login

    Hourly Weather Berdychev

    Today, 24 February, Monday

    Time Temperature Precipitation Wind Pressure Humidity
    00:00 +4°C° 0.7 mm 3 mps 728 mmHg 94%
    01:00 +4°C° 0.7 mm 4 mps 726 mmHg 94%
    02:00 +3°C° 0 mm 5 mps 725 mmHg 92%
    03:00 +5°C° 2.6 mm 5 mps 723 mmHg 89%
    04:00 +4°C° 2.6 mm 6 mps 722 mmHg 87%
    05:00 +5°C° 2.6 mm 7 mps 720 mmHg 85%
    06:00 +2°C° 0.6 mm 9 mps 720 mmHg 88%
    07:00 -1°C° 0.6 mm 12 mps 720 mmHg 91%
    08:00 -4°C° 0 mm 14 mps 722 mmHg 94%
    09:00 -2°C° 0.3 mm 13 mps 724 mmHg 86%
    10:00 -1°C° 0.3 mm 12 mps 725 mmHg 79%
    11:00 -1°C° 0.3 mm 11 mps 727 mmHg 71%
    12:00 -1°C° 0.1 mm 11 mps 728 mmHg 75%
    13:00 -1°C° 0.1 mm 11 mps 729 mmHg 78%
    14:00 -1°C° 0.1 mm 11 mps 730 mmHg 81%
    15:00 0°C° 0.1 mm 10 mps 730 mmHg 78%
    16:00 0°C° 0.1 mm 10 mps 731 mmHg 74%
    17:00 0°C° 0.1 mm 10 mps 732 mmHg 71%
    18:00 0°C° 0 mm 9 mps 733 mmHg 70%
    19:00 0°C° 0 mm 8 mps 733 mmHg 70%
    20:00 -1°C° 0 mm 7 mps 734 mmHg 70%
    21:00 -1°C° 0 mm 7 mps 735 mmHg 72%
    22:00 -1°C° 0 mm 6 mps 735 mmHg 75%
    23:00 -2°C° 0 mm 6 mps 736 mmHg 78%

    Tomorrow, 25 February, Tuesday

    Time Temperature Precipitation Wind Pressure Humidity
    00:00 -1°C° 0 mm 5 mps 736 mmHg 81%
    01:00 -2°C° 0 mm 5 mps 736 mmHg 83%
    02:00 -2°C° 0 mm 4 mps 736 mmHg 86%
    03:00 -2°C° 0 mm 4 mps 736 mmHg 88%
    04:00 -1°C° 0 mm 3 mps 736 mmHg 89%
    05:00 -2°C° 0 mm 3 mps 735 mmHg 91%
    06:00 -1°C° 0 mm 3 mps 735 mmHg 89%
    07:00 -2°C° 0 mm 4 mps 735 mmHg 86%
    08:00 -1°C° 0 mm 4 mps 734 mmHg 83%
    09:00 0°C° 0 mm 5 mps 734 mmHg 82%
    10:00 -1°C° 0 mm 6 mps 733 mmHg 81%
    11:00 0°C° 0 mm 7 mps 733 mmHg 80%
    12:00 +1°C° 0.1 mm 6 mps 732 mmHg 84%
    13:00 +1°C° 0.1 mm 6 mps 732 mmHg 88%
    14:00 -1°C° 0.1 mm 6 mps 732 mmHg 92%
    15:00 +1°C° 0 mm 6 mps 731 mmHg 88%
    16:00 +1°C° 0 mm 6 mps 730 mmHg 85%
    17:00 +2°C° 0 mm 5 mps 730 mmHg 82%
    18:00 +2°C° 0 mm 5 mps 730 mmHg 79%
    19:00 +2°C° 0 mm 5 mps 729 mmHg 77%
    20:00 +3°C° 0 mm 4 mps 729 mmHg 74%
    21:00 +3°C° 0 mm 4 mps 729 mmHg 74%
    22:00 +3°C° 0 mm 4 mps 729 mmHg 74%
    23:00 +3°C° 0 mm 4 mps 728 mmHg 74%

    Day after tomorrow, 26 February, Wednesday

    Time Temperature Precipitation Wind Pressure Humidity
    00:00 +3°C° 0 mm 4 mps 728 mmHg 75%
    01:00 +3°C° 0 mm 3 mps 727 mmHg 76%
    02:00 +3°C° 0 mm 3 mps 727 mmHg 77%
    03:00 +3°C° 0 mm 3 mps 726 mmHg 77%
    04:00 +3°C° 0 mm 3 mps 726 mmHg 76%
    05:00 +3°C° 0 mm 4 mps 725 mmHg 76%
    06:00 +3°C° 0 mm 4 mps 725 mmHg 78%
    07:00 +4°C° 0 mm 4 mps 725 mmHg 79%
    08:00 +4°C° 0 mm 4 mps 725 mmHg 81%
    09:00 +4°C° 0.2 mm 3 mps 725 mmHg 83%
    10:00 +5°C° 0.2 mm 3 mps 724 mmHg 85%
    11:00 +5°C° 0.2 mm 3 mps 724 mmHg 87%
    12:00 +7°C° 0 mm 3 mps 724 mmHg 82%
    13:00 +8°C° 0 mm 3 mps 723 mmHg 76%
    14:00 +9°C° 0 mm 3 mps 723 mmHg 71%
    15:00 +9°C° 0 mm 3 mps 722 mmHg 71%
    16:00 +9°C° 0 mm 3 mps 722 mmHg 72%
    17:00 +7°C° 0 mm 4 mps 721 mmHg 72%
    18:00 +7°C° 0 mm 4 mps 721 mmHg 74%
    19:00 +7°C° 0 mm 4 mps 721 mmHg 76%
    20:00 +7°C° 0 mm 4 mps 721 mmHg 78%
    21:00 +6°C° 0 mm 4 mps 721 mmHg 80%
    22:00 +5°C° 0 mm 4 mps 721 mmHg 82%
    23:00 +5°C° 0 mm 4 mps 721 mmHg 84%

    27 February, Thursday

    Time Temperature Precipitation Wind Pressure Humidity
    00:00 +4°C° 0 mm 4 mps 721 mmHg 87%
    01:00 +4°C° 0 mm 4 mps 721 mmHg 90%
    02:00 +3°C° 0 mm 3 mps 721 mmHg 93%
    03:00 +3°C° 0.1 mm 3 mps 722 mmHg 92%
    04:00 +3°C° 0.1 mm 3 mps 722 mmHg 91%
    05:00 +3°C° 0.1 mm 3 mps 722 mmHg 90%
    06:00 +3°C° 0 mm 3 mps 722 mmHg 89%
    07:00 +3°C° 0 mm 3 mps 723 mmHg 87%
    08:00 +3°C° 0 mm 4 mps 723 mmHg 86%
    09:00 +3°C° 0 mm 4 mps 723 mmHg 83%
    10:00 +3°C° 0 mm 4 mps 724 mmHg 80%
    11:00 +2°C° 0 mm 5 mps 724 mmHg 77%
    12:00 +2°C° 0 mm 5 mps 724 mmHg 70%
    13:00 +3°C° 0 mm 5 mps 724 mmHg 63%
    14:00 +3°C° 0 mm 5 mps 725 mmHg 56%
    15:00 +3°C° 0 mm 5 mps 725 mmHg 60%
    16:00 +2°C° 0 mm 5 mps 725 mmHg 64%
    17:00 +1°C° 0 mm 6 mps 725 mmHg 68%
    18:00 +1°C° 0 mm 5 mps 725 mmHg 69%
    19:00 +1°C° 0 mm 5 mps 726 mmHg 70%
    20:00 0°C° 0 mm 5 mps 726 mmHg 71%
    21:00 -1°C° 0 mm 6 mps 726 mmHg 72%
    22:00 -2°C° 0 mm 6 mps 726 mmHg 73%
    23:00 -2°C° 0 mm 6 mps 726 mmHg 74%

    28 February, Friday

    Time Temperature Precipitation Wind Pressure Humidity
    00:00 -3°C° 0 mm 6 mps 726 mmHg 76%
    01:00 -2°C° 0 mm 5 mps 727 mmHg 77%
    02:00 -2°C° 0 mm 5 mps 727 mmHg 78%
    03:00 -4°C° 0 mm 5 mps 727 mmHg 76%
    04:00 -4°C° 0 mm 5 mps 727 mmHg 73%
    05:00 -4°C° 0 mm 5 mps 727 mmHg 70%
    06:00 -4°C° 0 mm 6 mps 728 mmHg 74%
    07:00 -4°C° 0 mm 6 mps 728 mmHg 77%
    08:00 -4°C° 0 mm 6 mps 728 mmHg 80%
    09:00 -4°C° 0.1 mm 7 mps 729 mmHg 69%
    10:00 -3°C° 0.1 mm 7 mps 729 mmHg 58%
    11:00 -3°C° 0.1 mm 7 mps 729 mmHg 47%
    12:00 -2°C° 0 mm 7 mps 729 mmHg 47%
    13:00 -2°C° 0 mm 7 mps 730 mmHg 46%
    14:00 -2°C° 0 mm 7 mps 730 mmHg 46%
    15:00 -2°C° 0 mm 7 mps 730 mmHg 47%
    16:00 -3°C° 0 mm 6 mps 731 mmHg 48%
    17:00 -3°C° 0 mm 6 mps 731 mmHg 50%
    18:00 -4°C° 0 mm 6 mps 732 mmHg 52%
    19:00 -4°C° 0 mm 5 mps 732 mmHg 54%
    20:00 -5°C° 0 mm 5 mps 733 mmHg 55%
    21:00 -5°C° 0 mm 5 mps 733 mmHg 57%
    22:00 -5°C° 0 mm 6 mps 733 mmHg 59%
    23:00 -5°C° 0 mm 6 mps 733 mmHg 62%

    29 February, Saturday

    Time Temperature Precipitation Wind Pressure Humidity
    00:00 -5°C° 0 mm 6 mps 733 mmHg 63%
    01:00 -5°C° 0 mm 6 mps 733 mmHg 64%
    02:00 -5°C° 0 mm 6 mps 734 mmHg 65%
    03:00 -5°C° 0 mm 6 mps 734 mmHg 64%
    04:00 -5°C° 0 mm 6 mps 734 mmHg 64%
    05:00 -5°C° 0 mm 6 mps 734 mmHg 63%
    06:00 -5°C° 0 mm 6 mps 734 mmHg 62%
    07:00 -5°C° 0 mm 6 mps 734 mmHg 61%
    08:00 -5°C° 0 mm 6 mps 734 mmHg 59%
    09:00 -5°C° 0 mm 6 mps 734 mmHg 54%
    10:00 -4°C° 0 mm 6 mps 734 mmHg 50%
    11:00 -3°C° 0 mm 6 mps 734 mmHg 45%
    12:00 -1°C° 0 mm 5 mps 734 mmHg 42%
    13:00 -1°C° 0 mm 5 mps 733 mmHg 40%
    14:00 0°C° 0 mm 5 mps 733 mmHg 38%
    15:00 0°C° 0 mm 4 mps 733 mmHg 43%
    16:00 +1°C° 0 mm 3 mps 732 mmHg 49%
    17:00 0°C° 0 mm 3 mps 732 mmHg 55%
    18:00 0°C° 0 mm 3 mps 732 mmHg 60%
    19:00 0°C° 0 mm 3 mps 732 mmHg 65%
    20:00 -1°C° 0 mm 4 mps 731 mmHg 70%
    21:00 -1°C° 0 mm 4 mps 731 mmHg 75%
    22:00 -1°C° 0 mm 4 mps 730 mmHg 80%
    23:00 -1°C° 0 mm 5 mps 730 mmHg 85%
    Show more